星链-32004 (STARLINK-32004)

导读

STARLINK-32004是美国SpaceX星链计划卫星网络中的一员,于2024年6月27日发射升空,属于星链星座低轨卫星补网组网任务,旨在为全球提供高速低延迟互联网覆盖服务。星链系统通过大规模低轨卫星组网,服务覆盖偏远地区、远洋航线,也为军事通信等领域提供支持,持续拓展全球卫星互联网服务边界。

Basic Information
目录编号:
60151
目录名称:
STARLINK-32004
国际标识:
2024-120S
轨道中心:
EARTH
卫星名称:
星链-32004
卫星全名:
星链-32004 (STARLINK-32004)
卫星状态:
在轨 (已飞行721 天)
发射日期:
2024-06-27 UTC
国别 :
美国 (US)
星等 :
--
Orbit Information
数据来源 国际轨道数据 AOE轨道数据
星历时间 2026-06-17T18:37:28+0800
16小时前
查看轨道信息
2026-06-15T04:00:00+0800
3天前
查看轨道信息
半长轴 6840.879km 6840.902km
偏心率 0.0001181 0.0001869
轨道倾角 53.161° 53.156°
近地点辐角 79.590° 100.411°
升交点赤经 216.237° 228.439°
平近点角 280.524° 238.086°
近地点 461.934km 461.486km
远地点 463.55km 464.044km
周期 93.849分钟 93.849分钟
每日圈数 15.343872 15.343793
Detailed Information
固有亮度:
5
最大亮度:
2.5
卫星平台:
Starlink V1.0
覆盖范围:
全球
运营商:
太空探索技术公司
运营商所在国:
美国
制造商(研发单位):
太空探索技术公司
制造商所在国:
美国
使用方式:
暂无
Satellite Introduction
Starlink 计划是 SpaceX 推出的全球卫星互联网项目,通过发射低轨道卫星,为全球尤其是偏远地区提供高速、低延迟的互联网服务。自 2019 年起,Starlink 已部署数千颗卫星,旨在缩小全球数字鸿沟,推动互联网普及。该项目还为军事、航空等行业提供通信支持,带来广泛经济效益。
2D Orbit Map
3D Orbit Map
Orbit Altitude Analysis Chart
Orbit Inclination Analysis Chart
Orbit Comprehensive Analysis Chart
View Comprehensive Chart